Weather Roundup
Issued by NWS

Home | Current Version | Previous Version | Text Only | Print | Product List | Glossary On
Versions: 1 2 3 4 5 6 7 8 9 10 11 12 13 14 15 16 17 18 19 20 21 22 23 24 25 26 27 28 29 30 31 32 33 34 35 36 37 38 39 40 41 42 43 44 45 46 47 48 49 50
734
NZUS93 KARX 040210
HRRWXR

CURRENT HOURLY OBSERVATIONS ACROSS
MUCH OF THE UPPER MISSISSIPPI VALLEY
NATIONAL WEATHER SERVICE LA CROSSE WI
900 PM CDT TUE MAY 03 2016


...SOUTHEAST MINNESOTA...


CITY           SKY/WX    TMP DP  RH WIND       PRES   REMARKS
ROCHESTER      CLOUDY    57  48  72 N12       29.69R
ROCHESTER/MAYO FAIR      62  42  48 NW13G22   29.68R
WINONA         CLOUDY    59  43  55 W5        29.66F
AUSTIN         PTCLDY    61  43  51 W7        29.67S
ALBERT LEA     PTCLDY    64  32  29 NW10      29.70R
DODGE CENTER   MOCLDY    57  43  58 N14G20    29.70R
PRESTON        CLOUDY    57  44  62 NW15G25   29.67F
OWATONNA       CLEAR     64  30  27 N17       29.70R
FARIBAULT      CLEAR     64  34  32 N12G18    29.71R
$$

...ELSEWHERE IN MINNESOTA...


CITY           SKY/WX    TMP DP  RH WIND       PRES   REMARKS
MINNEAPOLIS    CLEAR     64  26  23 N21G30    29.72R
INTNL FALLS    CLEAR     50  33  52 NE6       29.90R
DULUTH         PTCLDY    54  33  45 N16G25    29.79R
RED WING       PTCLDY    63  32  31 N9G16     29.68R
REDWOOD FALLS  CLEAR     63  23  21 N17G26    29.79R
MANKATO        CLEAR     64  27  24 NW15G21   29.73R
WORTHINGTON    CLEAR     58  35  42 N17       29.83R
FAIRMONT       CLEAR     63  18  17 NW22G28   29.75R
$$

...SOUTHWEST WISCONSIN...


CITY           SKY/WX    TMP DP  RH WIND       PRES   REMARKS
LA CROSSE      LGT RAIN  53  49  86 S9        29.65R
PRAIRIE DU CHI PTCLDY    62  40  43 SW9       29.66F
LONE ROCK      CLOUDY    59  39  47 CALM      29.65F
PLATTEVILLE    CLOUDY    58  44  59 SW9       29.69F
FORT MC COY    CLOUDY    50  48  95 S5        29.70S
CAMP DOUGLAS   MOCLDY    50  50 100 SE6       29.67F
MAUSTON-NEW LI RAIN      51  49  93 NE9G18    29.70R
VIROQUA        CLOUDY    60  40  47 S3        29.64F
WIS DELLS      CLOUDY    60  36  40 N28G38    29.70R THUNDER
$$

...ELSEWHERE IN WISCONSIN...


CITY           SKY/WX    TMP DP  RH WIND       PRES   REMARKS
MILWAUKEE      CLOUDY    62  39  42 SW10      29.69F
MADISON        CLOUDY    61  38  42 SW6       29.66F
GREEN BAY      RAIN      52  48  86 NW8       29.71R
EAU CLAIRE     CLOUDY    52  49  89 NE10      29.69R
BLACK RVR FLS  CLOUDY    51  51 100 W3        29.67S
MEDFORD        CLEAR     46  45  99 CALM      29.70F
WAUSAU         CLOUDY    48  45  89 CALM      29.69S
WIS RAPIDS     MOCLDY    50  47  89 CALM      29.71R
MARSHFIELD     CLOUDY    49  46  90 NE6       29.70R
RICE LAKE      CLEAR     58  31  36 N10       29.74R
$$

...NORTHEAST IOWA...


CITY           SKY/WX    TMP DP  RH WIND       PRES   REMARKS
WATERLOO       PTCLDY    62  44  51 W12       29.71
DUBUQUE        CLOUDY    56  44  64 SW7       29.71F
DECORAH        CLOUDY    63  45  51 NW9       29.66F
MASON CITY     CLOUDY    62  47  57 W10       29.72F
CHARLES CITY   CLOUDY    63  45  51 SW15G22   29.69F
OELWEIN        MOCLDY    61  46  59 W12       29.71F
$$

...ELSEWHERE IN IOWA...


CITY           SKY/WX    TMP DP  RH WIND       PRES   REMARKS
DES MOINES     PTCLDY    59  43  55 SW8       29.81F
IOWA CITY      CLOUDY    61  44  53 SW8       29.79F
FORT DODGE     PTCLDY    61  45  55 W13       29.77F
MARSHALLTOWN   PTCLDY    59  45  59 W13       29.75F
CEDAR RAPIDS   MOCLDY    60  46  59 SW13      29.74F
$$

...NORTHERN ILLINOIS...


CITY           SKY/WX    TMP DP  RH WIND       PRES   REMARKS
CHICAGO-OHARE  CLOUDY    61  40  45 SW10      29.75F
CHICAGO-MIDWAY CLOUDY    62  38  40 SW10      29.76F
MOLINE           N/A     62  41  46 SW10      29.77F
ROCKFORD       CLOUDY    61  41  47 SW9       29.74F
PEORIA         PTCLDY    57  39  51 SW8       29.83F
$$

NOTE: "FAIR" INDICATES FEW OR NO CLOUDS BELOW 12,000 FEET WITH NO
SIGNIFICANT WEATHER AND/OR OBSTRUCTIONS TO VISIBILITY. WIND
SPEEDS ARE IN MILES-PER-HOUR.




USA.gov is the U.S. government's official web portal to all federal, state and local government web resources and services.